TimeMST,TemperatureF,Dew PointF,Humidity,Sea Level PressureIn,VisibilityMPH,Wind Direction,Wind SpeedMPH,Gust SpeedMPH,PrecipitationIn,Events,Conditions,WindDirDegrees,DateUTC
12:53 AM,1.0,-2.0,87,30.80,5.0,WNW,5.8,-,N/A,,Clear,290,2013-12-15 07:53:00
1:53 AM,-0.0,-4.0,83,30.80,6.0,Calm,Calm,-,N/A,,Clear,0,2013-12-15 08:53:00
2:53 AM,1.0,-2.0,87,30.78,6.0,Calm,Calm,-,N/A,,Scattered Clouds,0,2013-12-15 09:53:00
3:53 AM,-0.9,-5.1,83,30.76,6.0,Calm,Calm,-,N/A,,Partly Cloudy,0,2013-12-15 10:53:00
4:53 AM,-0.0,-2.9,88,30.79,5.0,Calm,Calm,-,N/A,,Clear,0,2013-12-15 11:53:00
5:53 AM,-0.0,-2.9,88,30.81,6.0,Calm,Calm,-,N/A,,Clear,0,2013-12-15 12:53:00
6:53 AM,-0.9,-5.1,83,30.81,6.0,WNW,4.6,-,N/A,,Clear,300,2013-12-15 13:53:00
7:53 AM,-0.9,-4.0,87,30.82,4.0,SSW,3.5,-,N/A,,Clear,210,2013-12-15 14:53:00
8:53 AM,1.0,-2.9,83,30.83,3.0,Calm,Calm,-,N/A,,Clear,0,2013-12-15 15:53:00
9:53 AM,6.1,1.0,80,30.83,5.0,Calm,Calm,-,N/A,,Haze,0,2013-12-15 16:53:00
10:53 AM,8.1,1.9,76,30.82,7.0,Calm,Calm,-,N/A,,Clear,0,2013-12-15 17:53:00
11:53 AM,12.0,3.9,70,30.76,7.0,Variable,3.5,-,N/A,,Clear,0,2013-12-15 18:53:00
12:53 PM,9.0,3.0,77,30.77,6.0,East,4.6,-,N/A,,Haze,90,2013-12-15 19:53:00
1:53 PM,10.0,3.9,76,30.74,8.0,Calm,Calm,-,N/A,,Clear,0,2013-12-15 20:53:00
2:53 PM,12.0,3.9,70,30.71,7.0,East,5.8,-,N/A,,Clear,90,2013-12-15 21:53:00
3:53 PM,12.0,3.9,70,30.72,8.0,Calm,Calm,-,N/A,,Clear,0,2013-12-15 22:53:00
4:53 PM,9.0,3.0,77,30.73,8.0,South,3.5,-,N/A,,Clear,170,2013-12-15 23:53:00
5:53 PM,7.0,1.9,80,30.73,7.0,Calm,Calm,-,N/A,,Clear,0,2013-12-16 00:53:00
6:53 PM,5.0,1.0,84,30.77,6.0,Calm,Calm,-,N/A,,Clear,0,2013-12-16 01:53:00
7:53 PM,3.9,1.0,88,30.76,5.0,Calm,Calm,-,N/A,,Clear,0,2013-12-16 02:53:00
8:53 PM,1.9,-2.0,83,30.76,4.0,Calm,Calm,-,N/A,,Clear,0,2013-12-16 03:53:00
9:53 PM,3.0,-0.0,87,30.74,4.0,Calm,Calm,-,N/A,,Overcast,0,2013-12-16 04:53:00
10:53 PM,3.9,1.0,88,30.74,3.0,Calm,Calm,-,N/A,,Clear,0,2013-12-16 05:53:00
11:53 PM,3.9,1.0,88,30.73,4.0,Calm,Calm,-,N/A,,Clear,0,2013-12-16 06:53:00